x

Boston 16 Nm East Of Boston, Ma (44013) Wave Buoy

10:50 - Fri 29th Apr 2016 All times are EDT. -4 hours from GMT.

  • Sig Wave height 1.6ft
  • Swell Direction
  • Peak Period 10s
  • Average Period 4s
  • Wind
    9mph, 11mph gusts
  • Sea Temp 46°f
  • Luft Temp 45°f
  • Sea Pressure 1022.2mb
  • Boston 16 Nm East Of Boston, Ma
  • Boston 16 Nm East Of Boston, Ma

More Historic Weather Station data

Upgrade to MSW Pro to gain access to the past 30 days of data for over 8000 Wavebouys and Weather Stations around the globe.

Join Pro

Comparision Forecast

View Surf forecast
   
Fr 04/29 10:50 1.6ft 10s 4s 9 11 mph 1022.2mb 46f 45f
9:50 1.3ft 10s 4s 11
mph
1021.9mb 46f 45f
8:50 1.3ft 10s 4s 11 13 mph 1021.6mb 46f 45f
7:50 1.3ft 10s 4s 11 13 mph 1021.4mb 45f 45f
6:50 1.6ft 11s 4s 9 11 mph 1020.8mb 45f 45f
5:50 1.6ft 10s 5s 9 11 mph 1020.2mb 45f 45f
4:50 1.6ft 11s 4s 9
mph
1019.8mb 46f 45f
3:50 1.6ft 10s 4s 7 9 mph 1019.2mb 46f 45f
2:50 2ft 11s 4s 7 9 mph 1018.9mb 46f 45f
1:50 2ft 9s 4s 9 11 mph 1018.8mb 46f 45f
12:50 2ft 9s 5s 9 11 mph 1019mb 46f 46f
Do 04/28 8:50 3ft 4s 4s 11 13 mph 1017.9mb 46f 47f
7:50 3ft 3s 4s 18 20 mph 1016.9mb 46f 46f
6:50 2.5ft 10s 4s 20 22 mph 1016.5mb 46f 46f
5:50 2.5ft 11s 4s 16 20 mph 1016.4mb 46f 46f
4:50 2.5ft 11s 4s 16 18 mph 1015.8mb 46f 45f
3:50 2ft 11s 4s 16 18 mph 1015.7mb 46f 45f
2:50 2ft 10s 4s 13 16 mph 1016.5mb 46f 45f
1:50 2ft 11s 5s 13 16 mph 1016.7mb 46f 44f
12:50 2ft 11s 5s 11
mph
1017.2mb 46f 44f
11:50 2ft 10s 5s 9
mph
1017.5mb 46f 44f
10:50 2ft 10s 5s 7 9 mph 1017.6mb 46f 43f
9:50 2ft 9s 5s 11 13 mph 1017.4mb 46f 44f
8:50 2ft 10s 4s 13 16 mph 1017.3mb 46f 44f
7:50 2.5ft 10s 4s 11 13 mph 1016.9mb 45f 44f
6:50 2.5ft 11s 4s 16 18 mph 1015.6mb 45f 44f
5:50 2.5ft 10s 4s 13 16 mph 1014.7mb 45f 44f
4:50 2.5ft 11s 4s 9 11 mph 1014mb 46f 44f
3:50 2.5ft 10s 4s 9 11 mph 1013mb 46f 45f
2:50 2.5ft 11s 4s 16 18 mph 1012.4mb 46f 46f
1:50 2.5ft 11s 4s 11 13 mph 1011.9mb 46f 46f
12:50 2ft 10s 4s 13 16 mph 1011.8mb 46f 48f
Mi 04/27 11:50 2.5ft 11s 4s 16 18 mph 1010mb 46f 48f
10:50 2.5ft 10s 4s 18 22 mph 1009.4mb 46f 48f
9:50 2.5ft 10s 4s 18 20 mph 1008.8mb 46f 48f
8:50 2.5ft 11s 4s 16 20 mph 1008.4mb 46f 49f
7:50 2.5ft 11s 4s 18 20 mph 1007.7mb 46f 49f
6:50 3.5ft 4s 4s 20 22 mph 1007.5mb 46f 49f
5:50 2.5ft 11s 4s 22 27 mph 1007.9mb 46f 49f
4:50 2.5ft 10s 4s 18 22 mph 1008.3mb 46f 47f
3:50 2.5ft 11s 4s 20 22 mph 1008.9mb 46f 47f
2:50 2ft 11s 5s 18 20 mph 1009.9mb 46f 45f
1:50 2ft 11s 6s 13 16 mph 1010.9mb 46f 46f
12:50 2.5ft 11s 7s 7 9 mph 1011.3mb 47f 46f
11:50 2.5ft 11s 6s 2
mph
1011.8mb 47f 45f
10:50 2.5ft 10s 6s 4 7 mph 1012.4mb 46f 44f
9:50 2.5ft 11s 6s 4 7 mph 1012.7mb 46f 43f
8:50 2.5ft 11s 6s 9 11 mph 1012.7mb 45f 42f
7:50 2.5ft 11s 6s 11 13 mph 1012.1mb 45f 40f
6:50 2.5ft 11s 5s 9 11 mph 1012.3mb 45f 40f
5:50 2.5ft 11s 5s 11 13 mph 1011.6mb 46f 41f
4:50 2.5ft 11s 5s 16 18 mph 1011mb 46f 41f
3:50 2.5ft 12s 5s 13 16 mph 1010.8mb 46f 41f
2:50 3ft 6s 5s 11 13 mph 1009.8mb 46f 40f
1:50 3ft 6s 5s 13
mph
1010.3mb 46f 40f
12:50 3.5ft 6s 5s 11 16 mph 1010.7mb 46f 39f
Di 04/26 11:50 3.5ft 6s 5s 13 16 mph 1010.8mb 46f 39f
10:50 3.5ft 6s 5s 11 13 mph 1010.8mb 46f 39f
9:50 3.5ft 6s 5s 11 13 mph 1010.4mb 46f 39f
8:50 4.5ft 6s 5s 16 20 mph 1009.9mb 46f 39f
7:50 4.5ft 6s 5s 18 22 mph 1009.4mb 46f 39f
6:50 5ft 6s 5s 18 22 mph 1009mb 46f 40f
5:50 4.5ft 6s 5s 18 22 mph 1008mb 46f 39f
4:50 4.5ft 6s 5s 18 22 mph 1007.3mb 46f 40f
3:50 5ft 6s 5s 20 25 mph 1006.6mb 46f 40f
2:50 5ft 6s 5s 22 25 mph 1006.7mb 46f 40f
1:50 5ft 6s 5s 25 29 mph 1006.6mb 46f 40f
12:50 4.5ft 5s 5s 20 22 mph 1007.6mb 46f 41f
11:50 4.5ft 6s 5s 20 25 mph 1007mb 46f 42f
10:50 5ft 6s 5s 18 20 mph 1008.8mb 46f 43f
9:50 4.5ft 6s 5s 22 25 mph 1008.6mb 46f 43f
8:50 4.5ft 6s 5s 20 25 mph 1009.8mb 46f 44f
7:50 4ft 6s 4s 20 22 mph 1010.1mb 46f 44f
6:50 3.5ft 5s 4s 20 25 mph 1011mb 46f 45f
5:50 3.5ft 4s 4s 20 25 mph 1011.4mb 46f 45f
4:50 3ft 4s 4s 18 20 mph 1011.5mb 46f 46f
3:50 2ft 11s 4s 20 25 mph 1011.3mb 47f 46f
2:50 1.6ft 11s 6s 16 20 mph 1011.2mb 47f 47f
1:50 1.6ft 11s 8s 13 18 mph 1011.9mb 47f 49f
12:50 2ft 10s 8s 2
mph
1012.3mb 47f 47f
Mo 04/25 11:50 1.6ft 11s 9s  -  2 mph 1012.4mb 47f 49f
10:50 2ft 11s 9s 2 4 mph 1012.7mb 47f 49f
9:50 2ft 10s 9s 2 4 mph 1012.6mb 47f 48f
8:50 1.6ft 10s 7s 7 9 mph 1012.5mb 47f 49f
7:50 1.6ft 11s 7s 7 9 mph 1012.3mb 47f 49f
6:50 1.6ft 11s 8s 7 9 mph 1012.2mb 47f 49f
5:50 1.6ft 11s 9s 9 11 mph 1012.3mb 47f 47f
4:50 1.3ft 11s 8s 11 13 mph 1012.8mb 47f 47f